Regional Weather Roundup
Issued by NWS

Home | Current Version | Previous Version | Graphics & Text | Print | Product List | Glossary On
Versions: 1 2 3 4 5 6 7 8 9 10 11 12 13 14 15 16 17 18 19 20 21 22 23 24 25 26 27 28 29 30 31 32 33 34 35 36 37 38 39 40 41 42 43 44 45 46 47 48 49 50
000
ASUS43 KLOT 130800
RWRIL

ILLINOIS REGIONAL WEATHER ROUNDUP
NATIONAL WEATHER SERVICE CHICAGO/ROMEOVILLE IL
300 AM CDT SUN JUL 13 2014

NOTE: "FAIR" INDICATES FEW OR NO CLOUDS BELOW 12,000 FEET WITH NO
SIGNIFICANT WEATHER AND/OR OBSTRUCTIONS TO VISIBILITY.

* THESE STATIONS ARE NOT UNDER NWS QUALITY CONTROL. THEY ALSO MAY NOT
  REPORT WEATHER SUCH AS PRECIPITATION OR FOG.

ILZ001-002-007-009-015-016-024-130900-
NORTHWEST ILLINOIS

CITY           SKY/WX    TMP DP  RH WIND       PRES   REMARKS
MOLINE         MOCLDY    68  65  90 NW7       29.94S
STERLING*      CLOUDY    68  64  88 N10       29.93S
$$

ILZ003-004-008-010-011-017-018-130900-
NORTH CENTRAL ILLINOIS

CITY           SKY/WX    TMP DP  RH WIND       PRES   REMARKS
ROCKFORD       CLOUDY    68  65  90 NW7       29.93R
$$

ILZ005-006-012>014-019>023-130900-
NORTHEAST ILLINOIS

CITY           SKY/WX    TMP DP  RH WIND       PRES   REMARKS
CHICAGO-OHARE  MOCLDY    71  66  84 W10       29.85S
CHICAGO-MIDWAY CLOUDY    73  72  96 W9        29.86R
AURORA         CLOUDY    71  68  90 W12       29.89R
WAUKEGAN       CLOUDY    68  67  96 CALM      29.85R
DUPAGE AIRPORT CLOUDY    71  69  93 W9        29.87S
WHEELING       CLOUDY    72  69  90 W7        29.87S
NORTHERLY ISL    N/A     71  68  90 W8          N/A
$$

LMZ740>746-130900-
SOUTHERN LAKE MICHIGAN

STATION/POSITION SKY/WX   TEMP    WIND        PRES    VSBY  WAVE
                          AIR SEA DIR/SP/G                  HT/PER
                          (F)     (DEG/KT/KT) (MB)    (MI)  (FT/S)
SOUTHERN BUOY              64 58  270/ 10/ 10 1009.9F         2/ 4
WAUKEGAN HARBOR            70     270/  8/ 10 1012.2S
HARRISON CRIB              68     240/  4/  6   N/A
BURNHAM HARBOR             71     280/  6/  9   N/A
CALUMET HARBOR             72     240/  6/ 12 1011.5S
MICHIGAN CITY              70     170/  3/  6   N/A
$$

ILZ025>027-034>036-040-047-049-050-058-095>099-130900-
WEST-CENTRAL ILLINOIS

CITY           SKY/WX    TMP DP  RH WIND       PRES   REMARKS
QUINCY         CLOUDY    76  71  85 NW10      29.98R
$$

ILZ028>032-037-038-041>044-048-051>054-059>061-130900-
CENTRAL ILLINOIS

CITY           SKY/WX    TMP DP  RH WIND       PRES   REMARKS
BLOOMINGTON    RAIN      72  70  94 W14       29.96R FOG
DECATUR        MOCLDY    81  70  69 SW13      29.93S HX  84
PEORIA         LGT RAIN  74  71  91 SW6       29.94S
SPRINGFIELD    MOCLDY    82  70  66 NW14      29.95R HX  86
TAYLORVILLE    NOT AVBL
$$

ILZ033-039-045-046-055>057-062-063-130900-
EAST-CENTRAL ILLINOIS

CITY           SKY/WX    TMP DP  RH WIND       PRES   REMARKS
CHAMPAIGN      CLOUDY    78  72  81 SW12      29.93S HX  80
MATTOON        CLOUDY    77  73  87 SW9       29.94S
$$

ILZ079-100>102-130900-
SOUTHWEST ILLINOIS

CITY           SKY/WX    TMP DP  RH WIND       PRES   REMARKS
CAHOKIA*       PTCLDY    80  72  76 SW3       29.97S HX  84
$$

ILZ064>066-069>071-074>076-080>082-084>086-088>090-092>094-130900-
SOUTH-CENTRAL ILLINOIS

CITY           SKY/WX    TMP DP  RH WIND       PRES   REMARKS
CARBONDALE     CLEAR     80  71  74 SW10      29.99F HX  84
MT. VERNON     PTCLDY    77  72  83 SW7       30.00R
$$

ILZ067-068-072-073-078-083-087-091-130900-
SOUTHEAST ILLINOIS

CITY           SKY/WX    TMP DP  RH WIND       PRES   REMARKS
$$

ABBREVIATIONS USED IN REMARKS
   TC - TEMPERATURE IN CELSIUS
  WCI - WIND CHILL INDEX
   HX - HEAT INDEX
  VSB - VISIBILITY
$$




USA.gov is the U.S. government's official web portal to all federal, state and local government web resources and services.